Lapse_Rate
1.6 2.8 3.2 2.5 1.7 0.9 0.7 -0.6 -0.3 0.1 0.4 1.2 2.4 3.5 4.6 5.4 5.5 5.5 5.2 4.7 4.1 3.7
2.4 2.7 3.1 1.9 0.6 0.3 -0.2 0.7 0.5 1.5 2.6 3.7 5.2 5.7 5.7 5.0 4.6 5.0 5.4 5.8 6.1 6.7
3.1 2.9 2.4 1.7 1.5 0.7 0.8 1.0 1.9 3.5 4.6 5.0 5.3 5.3 4.8 5.0 6.2 6.1 6.0 6.4 5.9 5.6
3.7 3.3 2.2 2.0 2.0 1.8 2.7 3.1 4.5 5.2 5.9 5.8 5.9 5.2 5.2 5.5 5.8 5.9 5.8 5.7 5.4 5.3
2.7 2.3 2.4 2.8 2.9 4.1 5.4 6.1 6.5 6.4 7.2 6.9 5.6 5.6 5.4 5.2 5.2 5.2 5.2 5.2 4.8 4.9
3.0 2.6 3.3 4.1 4.8 5.3 6.2 6.2 6.3 6.0 6.4 6.6 6.2 5.8 5.0 5.0 5.0 4.8 4.6 4.4 4.3 4.6
2.5 4.2 4.7 4.5 5.1 5.6 6.5 6.5 6.5 6.9 6.0 5.3 5.0 4.9 5.2 5.1 4.5 4.0 4.1 4.2 4.5 4.8
4.6 5.8 5.7 6.1 5.9 6.1 6.4 6.7 5.5 5.1 4.7 4.6 5.0 5.6 4.4 4.3 4.2 4.0 4.0 4.3 4.8 5.2
7.0 6.8 5.8 5.8 6.0 5.5 5.8 6.1 5.2 4.7 4.1 3.7 4.9 5.3 5.9 5.9 4.9 5.3 5.8 5.9 5.8 5.8
6.3 6.0 6.2 6.2 6.2 5.2 4.4 4.3 4.1 4.1 4.1 4.2 4.2 5.9 6.5 6.8 5.7 5.5 5.7 5.5 5.8 6.4
6.3 6.2 5.4 4.6 4.4 4.1 4.0 3.9 3.9 4.1 4.1 4.1 4.8 6.2 6.2 6.4 5.6 5.6 5.7 5.8 6.0 6.2
5.0 4.9 4.5 4.2 3.8 4.1 4.1 4.3 4.5 4.8 4.6 4.8 4.5 5.8 6.4 7.0 5.3 5.2 5.2 5.9 5.9 6.0
4.6 4.3 3.7 3.3 3.5 4.3 4.1 4.7 4.9 4.9 4.7 5.0 4.6 5.5 6.7 7.3 5.7 5.4 6.8 7.3 7.0 7.0
4.2 3.8 3.5 3.4 3.9 3.9 4.0 4.1 2.3 1.4 2.7 4.0 4.9 3.8 6.9 7.6 7.5 7.1 6.9 7.2 6.9 6.7
Wind_Speed
7 6 8 9 7 5 1 3 4 6 6 6 6 5 4 3 3 2 3 2 3 3
7 7 9 10 5 2 4 4 5 5 5 5 5 5 4 3 0 1 4 6 7 5
9 8 8 6 5 4 4 4 5 4 4 5 4 5 4 3 4 6 5 4 5 4
9 10 7 5 3 2 3 3 2 3 3 2 4 2 2 4 5 4 4 3 4 5
8 7 6 3 2 2 3 3 4 5 5 5 4 4 3 3 4 4 5 5 5 6
8 6 5 5 5 5 5 7 9 7 6 6 5 5 4 3 4 5 5 5 5 5
6 6 6 6 7 7 7 6 5 5 5 4 4 4 5 5 4 4 5 5 6 6
3 4 5 6 5 5 5 4 5 4 3 4 4 3 4 4 5 6 6 6 7 7
1 2 4 4 4 4 6 5 4 5 4 5 3 9 12 9 5 7 8 9 9 9
5 5 4 4 5 5 4 3 4 4 4 5 5 10 14 16 8 8 8 9 9 10
3 4 4 4 4 4 3 4 4 5 4 4 5 15 17 17 7 7 8 10 11 11
5 4 5 5 5 4 4 4 4 3 5 5 8 15 17 14 5 7 9 9 10 10
5 5 5 5 5 3 3 4 3 5 5 9 8 15 17 15 6 7 6 11 12 17
5 5 4 5 3 4 4 4 4 5 6 7 8 8 17 20 9 7 8 8 9 8
Wind_Direction
323 318 307 301 304 292 254 135 125 104 99 100 100 102 95 76 49 65 37 348 289 252
296 297 309 307 287 218 148 147 130 115 113 120 129 114 99 100 87 164 242 232 222 227
307 300 295 294 272 201 166 136 134 142 149 139 130 137 153 196 213 219 225 221 216 216
306 306 306 302 273 170 151 175 188 277 287 4 22 335 223 240 256 264 279 272 258 250
306 314 318 345 84 49 317 348 326 25 5 357 335 333 316 309 314 301 290 280 281 270
323 329 343 18 31 33 20 19 14 356 347 335 336 330 334 317 299 288 277 278 282 282
346 18 47 39 25 27 20 360 329 293 328 342 327 331 317 306 299 287 272 266 258 258
90 68 10 8 18 339 281 303 344 335 348 337 322 312 324 298 283 281 285 284 283 278
236 300 265 295 290 279 277 294 319 345 342 333 334 332 324 316 291 279 276 283 283 277
335 316 306 287 289 299 318 337 331 332 348 333 319 320 314 310 297 290 287 282 283 284
261 276 337 8 7 340 338 344 335 325 328 322 308 315 315 313 300 286 281 276 277 277
352 6 3 358 347 337 333 326 319 316 316 308 304 314 318 320 299 285 280 285 284 280
357 355 354 353 337 319 321 308 318 313 311 312 305 312 321 325 306 288 290 304 294 289
0 356 355 334 322 320 327 324 319 313 304 300 308 310 323 326 316 305 297 295 299 291